Location: Deneb Observatory
(47.2267°N, 100.4953°W)
Time: 00:25:46
(UTC-05:00)

Amateur Radio Satellites - All Passes

Search period start: 28 June 2016 23:55
Search period end: 29 June 2016 23:55
Location: Deneb Observatory, 47.2267°N, 100.4953°W

Satellite Date Start Highest point End Downlink Frequencies (MHz)
Time Altitude Azimuth
PRISM 28 Jun 23:59:08 00:01:01 13° 301° (WNW) 00:02:53 437.425
50 SAT 28 Jun 23:59:33 00:03:05 42° 71° (ENE) 00:06:38 437.505
RS-15 29 Jun 00:05:53 00:15:02 26° 260° (W) 00:24:09 29.354- 29.394
YUBILEINY 29 Jun 00:15:01 00:23:36 51° 72° (ENE) 00:32:08 435.215
ESTCUBE 1 29 Jun 00:24:29 00:29:01 71° 257° (WSW) 00:33:34 437.505/2401.250
UKube-1 29 Jun 00:26:05 00:30:16 52° 71° (ENE) 00:34:29 .
SPROUT 29 Jun 00:27:21 00:31:15 36° 69° (ENE) 00:35:10 437.525
AISAT 29 Jun 00:27:28 00:31:52 86° 73° (ENE) 00:36:17 437.250
HUMSAT D 29 Jun 00:32:11 00:34:02 13° 272° (W) 00:35:55 437.325/437.525
BUGSAT 1 29 Jun 00:41:16 00:42:59 12° 89° (E) 00:44:40 437.445
TIGRISAT 29 Jun 00:46:05 00:50:35 51° 289° (WNW) 00:55:07 435.000
DX 1 29 Jun 00:46:26 00:50:47 80° 254° (WSW) 00:55:10 434.975-435.025
UNISAT 6 29 Jun 00:51:25 00:55:49 44° 290° (WNW) 01:00:15 437.425
NANOSAT C BR1 29 Jun 00:59:54 01:03:58 43° 99° (E) 01:08:01 145.865
JAS-2 29 Jun 00:59:56 01:02:28 13° 84° (E) 01:04:54 435.910
QB50P1 29 Jun 01:03:02 01:07:11 49° 100° (E) 01:11:19 145.935-145.965
SO-50 29 Jun 01:03:38 01:08:22 69° 50° (NE) 01:12:54 436.795
POPSAT HIP 1 29 Jun 01:06:16 01:10:27 52° 100° (E) 01:14:38 437.405
Cosmos 2504 29 Jun 01:11:03 01:19:19 40° 68° (ENE) 01:27:17 435.465 / 435.565
CUBEBUG 1 29 Jun 01:14:39 01:18:32 31° 264° (W) 01:22:26 437.445
QB50P2 29 Jun 01:18:38 01:22:55 77° 102° (ESE) 01:27:12 145.880/145.840
DUCHIFAT 1 29 Jun 01:20:14 01:24:27 68° 101° (ESE) 01:28:41 145.980
POLYITAN 1 29 Jun 01:21:15 01:25:33 78° 103° (ESE) 01:29:50 437.675
VELOX 1 29 Jun 01:23:45 01:27:34 28° 265° (W) 01:31:23 145.980
Cosmos 2491 29 Jun 01:28:25 01:36:56 60° 92° (E) 01:45:28 435.465 / 435.565
AO-85 29 Jun 01:29:36 01:32:48 16° 335° (NNW) 01:35:53 145.980
ANTELSAT 29 Jun 01:31:58 01:35:22 21° 298° (WNW) 01:38:48 437.575/2403.000
50 SAT 29 Jun 01:34:37 01:36:59 16° 268° (W) 01:39:21 437.505
TISAT 1 29 Jun 01:46:05 01:50:12 67° 73° (ENE) 01:54:21 437.305
UKube-1 29 Jun 02:03:45 02:06:38 17° 268° (W) 02:09:32 .
SPROUT 29 Jun 02:03:52 02:07:18 24° 266° (W) 02:10:46 437.525
AISAT 29 Jun 02:07:54 02:08:58 11° 273° (W) 02:10:01 437.250
YUBILEINY 29 Jun 02:12:10 02:20:15 42° 274° (W) 02:28:19 435.215
PCSat 29 Jun 02:12:46 02:16:35 20° 106° (ESE) 02:20:25 145.827
BUGSAT 1 29 Jun 02:14:44 02:18:48 68° 286° (WNW) 02:22:54 437.445
SWISSCUBE 29 Jun 02:23:32 02:27:59 40° 67° (ENE) 02:32:28 437.505
Oscar 19 29 Jun 02:25:11 02:29:30 27° 94° (E) 02:33:48 437.125/150
NANOSAT C BR1 29 Jun 02:36:15 02:39:27 21° 296° (WNW) 02:42:38 145.865
QB50P1 29 Jun 02:39:38 02:42:38 19° 297° (WNW) 02:45:39 145.935-145.965
JAS-2 29 Jun 02:42:50 02:48:37 89° 288° (WNW) 02:53:54 435.910
POPSAT HIP 1 29 Jun 02:42:58 02:45:53 18° 298° (WNW) 02:48:48 437.405
SO-50 29 Jun 02:45:13 02:48:18 18° 249° (WSW) 02:51:18 436.795
Gurwin Techsat 1B 29 Jun 02:45:43 02:49:31 19° 90° (E) 02:53:17 435.225
BEESAT 29 Jun 02:48:28 02:53:10 61° 72° (ENE) 02:57:55 436.000
ITUPSAT 1 29 Jun 02:49:46 02:54:30 61° 71° (ENE) 02:59:16 437.325
BEESAT 3 29 Jun 02:49:47 02:52:24 17° 113° (ESE) 02:55:04 437.485
QB50P2 29 Jun 02:56:05 02:58:10 13° 301° (WNW) 03:00:15 145.880/145.840
DUCHIFAT 1 29 Jun 02:57:17 02:59:39 15° 300° (WNW) 03:02:01 145.980
POLYITAN 1 29 Jun 02:58:44 03:00:46 13° 301° (WNW) 03:02:49 437.675
Cosmos 2504 29 Jun 03:04:27 03:13:03 56° 270° (W) 03:21:21 435.465 / 435.565
O/OREOS (USA 219) 29 Jun 03:06:27 03:10:07 25° 104° (ESE) 03:13:46 437.305
TISAT 1 29 Jun 03:24:24 03:26:19 13° 271° (W) 03:28:13 437.305
MOZHAYETS 4 29 Jun 03:25:21 03:28:32 19° 61° (ENE) 03:31:45
Cosmos 2491 29 Jun 03:26:24 03:34:16 36° 294° (WNW) 03:42:10 435.465 / 435.565
BEESAT 2 29 Jun 03:27:50 03:31:03 24° 115° (ESE) 03:34:17 435.950
KKS-1 29 Jun 03:31:30 03:34:56 23° 63° (ENE) 03:38:22 437.445
AO-7 29 Jun 03:40:54 03:44:42 14° 84° (E) 03:48:29 29.400- 29.500
PCSat 29 Jun 03:53:59 03:59:25 72° 306° (NW) 04:04:52 145.827
SWISSCUBE 29 Jun 04:01:50 04:05:53 27° 266° (W) 04:10:00 437.505
STARS 29 Jun 04:02:18 04:05:45 24° 64° (ENE) 04:09:15 437.465
Oscar 19 29 Jun 04:04:09 04:09:00 45° 292° (WNW) 04:13:52 437.125/150
GONETS M04 29 Jun 04:17:35 04:22:30 16° 51° (NE) 04:27:24
AIST 1 29 Jun 04:18:45 04:22:23 26° 71° (ENE) 04:25:59
Gurwin Techsat 1B 29 Jun 04:24:39 04:29:56 65° 289° (WNW) 04:35:12 435.225
BEESAT 3 29 Jun 04:25:52 04:29:43 55° 311° (NW) 04:33:38 437.485
ITAMSAT 1 29 Jun 04:27:24 04:32:32 54° 100° (E) 04:37:39 435.822/435.867
BEESAT 29 Jun 04:28:09 04:31:22 18° 269° (W) 04:34:37 436.000
JAS-2 29 Jun 04:29:25 04:32:47 16° 308° (NW) 04:35:59 435.910
ITUPSAT 1 29 Jun 04:29:31 04:32:45 18° 270° (W) 04:36:00 437.325
O/OREOS (USA 219) 29 Jun 04:45:06 04:49:19 40° 302° (WNW) 04:53:34 437.305
CUBESAT XI-V 29 Jun 04:54:11 04:57:27 19° 61° (ENE) 05:00:44 437.345
AO-85 29 Jun 04:55:00 04:57:59 16° 25° (NNE) 05:00:49 145.980
MOZHAYETS 4 29 Jun 05:00:42 05:05:16 60° 259° (W) 05:09:54
Cosmos 2504 29 Jun 05:01:34 05:04:20 12° 292° (WNW) 05:07:04 435.465 / 435.565
BEESAT 2 29 Jun 05:04:55 05:08:42 41° 314° (NW) 05:12:31 435.950
KKS-1 29 Jun 05:07:02 05:11:15 44° 261° (W) 05:15:30 437.445
AO-7 29 Jun 05:30:47 05:39:08 65° 105° (ESE) 05:47:26 29.400- 29.500
STARS 29 Jun 05:37:49 05:41:55 40° 262° (W) 05:46:03 437.465
PCSat 29 Jun 05:39:59 05:43:47 19° 328° (NNW) 05:47:36 145.827
Cosmos 2499 29 Jun 05:45:59 05:53:49 34° 64° (ENE) 06:01:18 435.465 / 435.565
AIST 2 29 Jun 05:51:18 05:55:11 41° 120° (ESE) 05:59:06 435.215
AIST 1 29 Jun 05:56:15 06:00:00 30° 270° (W) 06:03:42
BEESAT 3 29 Jun 06:06:33 06:08:17 12° 332° (NNW) 06:10:01 437.485
Gurwin Techsat 1B 29 Jun 06:07:04 06:08:54 12° 308° (NW) 06:10:44 435.225
ITAMSAT 1 29 Jun 06:07:30 06:11:41 25° 299° (WNW) 06:15:52 435.822/435.867
GONETS M04 29 Jun 06:12:46 06:21:27 63° 76° (ENE) 06:30:06
HORYU 2 29 Jun 06:20:01 06:24:20 44° 99° (E) 06:28:38 437.375
STRAND 1 29 Jun 06:28:48 06:31:55 16° 56° (ENE) 06:35:01 437.568
CUBESAT XI-V 29 Jun 06:29:46 06:34:25 60° 259° (W) 06:39:05 437.345
AO-85 29 Jun 06:34:52 06:39:31 59° 48° (NE) 06:43:43 145.980
NOAA 18 29 Jun 06:38:35 06:41:18 14° 87° (E) 06:44:01 137.9125
Cubesat XI-IV 29 Jun 06:39:39 06:41:57 13° 86° (E) 06:44:14 437.490
CUSAT 1 29 Jun 06:42:35 06:45:31 13° 82° (E) 06:48:16 437.405
BEESAT 2 29 Jun 06:46:35 06:47:35 11° 336° (NNW) 06:48:36 435.950
BRITE-PL 29 Jun 06:54:57 06:57:56 19° 92° (E) 07:00:55 437.365/2234.400
DANDE 29 Jun 07:10:31 07:13:45 13° 77° (ENE) 07:16:52 436.750
CUTE-I 29 Jun 07:12:15 07:16:38 25° 93° (E) 07:21:00 437.470
LilacSat-2 29 Jun 07:13:31 07:16:27 20° 93° (E) 07:19:24 437.200
AO-7 29 Jun 07:24:05 07:31:29 36° 306° (NW) 07:38:51 29.400- 29.500
GOMX 1 29 Jun 07:25:19 07:28:17 18° 92° (E) 07:31:20 467.674
AIST 2 29 Jun 07:30:11 07:33:48 28° 319° (NW) 07:37:26 435.215
NOAA 15 29 Jun 07:38:00 07:43:09 53° 101° (E) 07:48:16 137.62
Cosmos 2499 29 Jun 07:38:54 07:47:37 65° 268° (W) 07:55:49 435.465 / 435.565
PRISM 29 Jun 07:43:15 07:43:43 10° 56° (ENE) 07:44:10 437.425
HORYU 2 29 Jun 07:57:06 08:00:39 23° 297° (WNW) 08:04:11 437.375
STRAND 1 29 Jun 08:05:15 08:10:24 85° 254° (WSW) 08:15:37 437.568
GONETS M04 29 Jun 08:10:19 08:17:42 33° 278° (W) 08:25:08
HO-68 29 Jun 08:10:51 08:14:18 14° 85° (E) 08:17:44 435.675
AO-85 29 Jun 08:16:20 08:19:27 19° 249° (WSW) 08:22:24 145.980
NOAA 18 29 Jun 08:17:10 08:22:46 87° 105° (ESE) 08:28:20 137.9125
Cubesat XI-IV 29 Jun 08:17:24 08:22:50 84° 104° (ESE) 08:28:14 437.490
CUSAT 1 29 Jun 08:19:15 08:26:49 65° 97° (E) 08:33:03 437.405
DOVE 4 29 Jun 08:21:34 08:25:29 33° 97° (E) 08:29:34 437.250
BRITE-PL 29 Jun 08:32:46 08:36:41 41° 290° (WNW) 08:40:37 437.365/2234.400
CUTE 1.7 + AOD 2 29 Jun 08:39:28 08:41:42 14° 89° (E) 08:43:54 437.475
SEEDS 29 Jun 08:43:22 08:44:14 11° 87° (E) 08:45:07 437.485
PHONESAT 2.4 29 Jun 08:44:36 08:46:53 19° 168° (SSE) 08:49:10 2401.200-2431.200
DANDE 29 Jun 08:47:10 08:55:20 58° 94° (E) 09:02:42 436.750
LilacSat-2 29 Jun 08:47:19 08:50:53 36° 290° (WNW) 08:54:27 437.200
CUTE-I 29 Jun 08:51:45 08:56:59 52° 291° (WNW) 09:02:09 437.470
GOMX 1 29 Jun 09:02:38 09:06:39 45° 289° (WNW) 09:10:46 467.674
CUBEBUG 2 29 Jun 09:06:53 09:08:00 11° 86° (E) 09:09:08 437.445
CINEMA 3 29 Jun 09:11:59 09:16:10 35° 97° (E) 09:20:30 145.822/145.860
PCSat 29 Jun 09:13:27 09:15:40 12° 21° (NNE) 09:17:53 145.827
PRISM 29 Jun 09:14:09 09:18:19 81° 75° (ENE) 09:22:29 437.425
NOAA 15 29 Jun 09:18:24 09:22:37 25° 299° (WNW) 09:26:48 137.62
AAUSAT CUBESAT 2 29 Jun 09:19:09 09:21:32 15° 90° (E) 09:23:53 437.432
AO-7 29 Jun 09:19:33 09:21:49 11° 330° (NNW) 09:24:06 29.400- 29.500
Cosmos 2499 29 Jun 09:34:46 09:38:51 14° 290° (WNW) 09:42:52 435.465 / 435.565
Oscar 11 29 Jun 09:39:25 09:39:38 10° 86° (E) 09:39:53 145.826/435.025
FUNcube-1 29 Jun 09:46:38 09:48:25 12° 87° (E) 09:50:11 145.935
STRAND 1 29 Jun 09:48:25 09:50:22 12° 274° (W) 09:52:20 437.568
UWE-3 29 Jun 09:50:46 09:54:16 21° 92° (E) 09:57:47 435.000/436.395/437.385
ISS 29 Jun 09:51:48 09:54:50 38° 145° (SE) 09:57:54 145.825
COMPASS 1 29 Jun 09:52:48 09:56:47 40° 98° (E) 10:00:43 437.405
CANX-2 29 Jun 09:53:48 09:58:07 89° 67° (ENE) 10:02:24 2200.000
HO-68 29 Jun 09:56:04 10:03:17 71° 104° (ESE) 10:10:28 435.675
Cubesat XI-IV 29 Jun 09:58:48 10:02:14 17° 304° (NW) 10:05:40 437.490
NOAA 18 29 Jun 09:59:08 10:02:43 18° 305° (NW) 10:06:18 137.9125
DOVE 4 29 Jun 09:59:29 10:03:08 27° 293° (WNW) 10:06:54 437.250
CUSAT 1 29 Jun 10:02:56 10:09:10 29° 292° (WNW) 10:14:30 437.405
BEESAT 2 29 Jun 10:06:06 10:07:13 11° 25° (NNE) 10:08:20 435.950
TIGRISAT 29 Jun 10:12:01 10:15:30 24° 64° (ENE) 10:19:03 435.000
CUTE 1.7 + AOD 2 29 Jun 10:13:43 10:17:59 65° 286° (WNW) 10:22:12 437.475
SEEDS 29 Jun 10:16:16 10:20:32 82° 285° (WNW) 10:24:45 437.485
UNISAT 6 29 Jun 10:17:08 10:20:50 28° 66° (ENE) 10:24:39 437.425
PHONESAT 2.4 29 Jun 10:20:29 10:22:58 22° 185° (S) 10:25:26 2401.200-2431.200
DANDE 29 Jun 10:30:46 10:38:26 39° 291° (WNW) 10:45:20 436.750
AUBIESAT-1 29 Jun 10:30:49 10:34:14 27° 102° (ESE) 10:37:50 437.475
CUBEBUG 2 29 Jun 10:40:38 10:45:16 87° 108° (ESE) 10:49:58 437.445
QB50P2 29 Jun 10:42:07 10:43:05 11° 57° (ENE) 10:44:03 145.880/145.840
POLYITAN 1 29 Jun 10:44:36 10:45:41 11° 57° (ENE) 10:46:47 437.675
CINEMA 3 29 Jun 10:49:20 10:53:13 29° 293° (WNW) 10:57:14 145.822/145.860
AAUSAT CUBESAT 2 29 Jun 10:53:16 10:57:24 57° 287° (WNW) 11:01:27 437.432
PRISM 29 Jun 10:53:21 10:54:10 10° 272° (W) 10:55:00 437.425
PCSat 29 Jun 10:55:43 11:00:44 36° 45° (NE) 11:05:43 145.827
ANTELSAT 29 Jun 10:56:11 11:00:29 67° 73° (ENE) 11:04:54 437.575/2403.000
DELFI C3 29 Jun 10:58:33 11:02:07 30° 96° (E) 11:05:39 145.870
BEESAT 3 29 Jun 11:02:51 11:06:28 32° 43° (NE) 11:10:02 437.485
ZACube-1 29 Jun 11:03:31 11:08:05 72° 102° (ESE) 11:12:40 437.345
M-CUBED/EXP-1 PRIME 29 Jun 11:10:32 11:14:24 88° 114° (ESE) 11:18:34 437.505
Oscar 11 29 Jun 11:12:02 11:16:26 89° 269° (W) 11:20:46 145.826/435.025
JAS-2 29 Jun 11:15:44 11:19:24 15° 51° (NE) 11:22:54 435.910
FUNcube-1 29 Jun 11:20:40 11:25:13 83° 287° (WNW) 11:29:49 145.935
UWE-3 29 Jun 11:26:33 11:30:58 48° 289° (WNW) 11:35:26 435.000/436.395/437.385
ISS 29 Jun 11:28:02 11:31:15 51° 344° (NNW) 11:34:27 145.825
COMPASS 1 29 Jun 11:28:52 11:32:07 22° 296° (WNW) 11:35:21 437.405
CANX-2 29 Jun 11:31:46 11:33:18 12° 302° (WNW) 11:34:50 2200.000
BUGSAT 1 29 Jun 11:34:16 11:36:20 14° 60° (ENE) 11:38:25 437.445
O/OREOS (USA 219) 29 Jun 11:34:23 11:36:41 14° 44° (NE) 11:39:00 437.305
Cosmos 2491 29 Jun 11:34:51 11:42:43 35° 66° (ENE) 11:50:29 435.465 / 435.565
BEESAT 2 29 Jun 11:42:15 11:46:05 42° 46° (NE) 11:49:54 435.950
HO-68 29 Jun 11:44:32 11:50:27 29° 305° (NW) 11:56:22 435.675
TIGRISAT 29 Jun 11:47:58 11:52:00 39° 263° (W) 11:56:09 435.000
UNISAT 6 29 Jun 11:53:35 11:57:29 32° 264° (W) 12:01:30 437.425
SEEDS 29 Jun 11:54:39 11:55:31 11° 303° (WNW) 11:56:21 437.485
NANOSAT C BR1 29 Jun 11:54:49 11:58:50 47° 71° (ENE) 12:02:53 145.865
PHONESAT 2.4 29 Jun 11:57:40 11:58:57 12° 201° (SSW) 12:00:14 2401.200-2431.200
QB50P1 29 Jun 11:58:14 12:02:19 54° 72° (ENE) 12:06:27 145.935-145.965
POPSAT HIP 1 29 Jun 12:01:31 12:05:37 58° 72° (ENE) 12:09:47 437.405
AUBIESAT-1 29 Jun 12:05:15 12:08:42 31° 297° (WNW) 12:12:20 437.475
HUMSAT D 29 Jun 12:09:27 12:13:49 86° 105° (ESE) 12:18:07 437.325/437.525
QB50P2 29 Jun 12:13:58 12:18:10 84° 78° (ENE) 12:22:25 145.880/145.840
ESTCUBE 1 29 Jun 12:14:38 12:17:55 19° 92° (E) 12:21:10 437.505/2401.250
DUCHIFAT 1 29 Jun 12:14:49 12:18:58 73° 74° (ENE) 12:23:10 145.980
AISAT 29 Jun 12:16:12 12:18:13 13° 89° (E) 12:20:14 437.250
POLYITAN 1 29 Jun 12:16:36 12:20:48 86° 73° (ENE) 12:25:03 437.675
RS-15 29 Jun 12:18:49 12:29:30 49° 111° (ESE) 12:40:44 29.354- 29.394
CUBEBUG 2 29 Jun 12:18:59 12:21:15 14° 301° (WNW) 12:23:33 437.445
AIST 2 29 Jun 12:31:58 12:34:33 16° 31° (NNE) 12:37:08 435.215
DX 1 29 Jun 12:32:56 12:35:13 14° 90° (E) 12:37:31 434.975-435.025
DELFI C3 29 Jun 12:33:33 12:36:53 26° 294° (WNW) 12:40:12 145.870
ANTELSAT 29 Jun 12:35:29 12:37:43 14° 272° (W) 12:39:58 437.575/2403.000
PCSat 29 Jun 12:39:06 12:44:16 45° 245° (WSW) 12:49:24 145.827
BEESAT 3 29 Jun 12:40:35 12:44:08 32° 242° (WSW) 12:47:39 437.485
ZACube-1 29 Jun 12:41:08 12:43:50 16° 300° (WNW) 12:46:34 437.345
M-CUBED/EXP-1 PRIME 29 Jun 12:47:08 12:48:29 12° 305° (NW) 12:49:50 437.505
Oscar 11 29 Jun 12:50:14 12:51:52 12° 302° (WNW) 12:53:31 145.826/435.025
JAS-2 29 Jun 12:55:57 13:03:20 61° 70° (ENE) 13:10:00 435.910
FUNcube-1 29 Jun 12:59:05 13:00:45 12° 303° (WNW) 13:02:25 145.935
50 SAT 29 Jun 12:59:05 13:02:29 33° 97° (E) 13:05:51 437.505
CUBEBUG 1 29 Jun 12:59:34 13:03:34 36° 97° (E) 13:07:33 437.445
ISS 29 Jun 13:05:01 13:08:05 36° 3° (N) 13:11:10 145.825
BUGSAT 1 29 Jun 13:07:15 13:11:14 65° 258° (WSW) 13:15:15 437.445
VELOX 1 29 Jun 13:09:56 13:14:08 41° 99° (E) 13:18:17 145.980
O/OREOS (USA 219) 29 Jun 13:12:20 13:16:51 83° 66° (ENE) 13:21:20 437.305
YUBILEINY 29 Jun 13:19:47 13:28:05 51° 89° (E) 13:36:26 435.215
BEESAT 2 29 Jun 13:20:31 13:23:44 23° 245° (WSW) 13:26:55 435.950
Cosmos 2491 29 Jun 13:31:32 13:40:03 61° 269° (W) 13:48:33 435.465 / 435.565
NANOSAT C BR1 29 Jun 13:31:59 13:34:50 18° 268° (W) 13:37:43 145.865
QB50P1 29 Jun 13:35:53 13:38:27 16° 270° (W) 13:41:02 145.935-145.965
POPSAT HIP 1 29 Jun 13:39:25 13:41:48 15° 270° (W) 13:44:13 437.405
Oscar 19 29 Jun 13:44:50 13:49:49 53° 69° (ENE) 13:54:49 437.125/150
SPROUT 29 Jun 13:45:35 13:49:44 45° 99° (E) 13:53:50 437.525
UKube-1 29 Jun 13:45:49 13:50:07 61° 102° (ESE) 13:54:22 .
HUMSAT D 29 Jun 13:46:58 13:48:47 12° 302° (WNW) 13:50:36 437.325/437.525
ESTCUBE 1 29 Jun 13:50:39 13:55:00 49° 290° (WNW) 13:59:20 437.505/2401.250
AISAT 29 Jun 13:50:49 13:55:12 73° 287° (WNW) 13:59:35 437.250
DUCHIFAT 1 29 Jun 13:53:41 13:55:11 12° 272° (W) 13:56:41 145.980
Cosmos 2504 29 Jun 13:54:00 14:00:41 28° 80° (E) 14:07:40 435.465 / 435.565
QB50P2 29 Jun 13:54:07 13:54:35 10° 273° (W) 13:55:03 145.880/145.840
DX 1 29 Jun 14:07:33 14:11:52 65° 287° (WNW) 14:16:09 434.975-435.025
Gurwin Techsat 1B 29 Jun 14:09:28 14:14:25 41° 67° (ENE) 14:19:24 435.225
AIST 2 29 Jun 14:09:34 14:13:45 75° 51° (NE) 14:17:54 435.215
ITAMSAT 1 29 Jun 14:11:15 14:14:46 19° 58° (ENE) 14:18:19 435.822/435.867
RS-15 29 Jun 14:30:12 14:41:41 64° 317° (NW) 14:53:50 29.354- 29.394
50 SAT 29 Jun 14:33:12 14:35:59 20° 295° (WNW) 14:38:43 437.505
CUBEBUG 1 29 Jun 14:36:10 14:39:43 25° 295° (WNW) 14:43:16 437.445
ISS 29 Jun 14:41:33 14:44:50 78° 24° (NNE) 14:48:06 145.825
JAS-2 29 Jun 14:42:07 14:48:38 31° 266° (W) 14:54:41 435.910
AO-7 29 Jun 14:42:18 14:49:15 31° 51° (NE) 14:56:14 29.400- 29.500
VELOX 1 29 Jun 14:46:54 14:50:22 23° 296° (WNW) 14:53:50 145.980
BEESAT 29 Jun 14:47:28 14:49:20 12° 87° (E) 14:51:12 436.000
ITUPSAT 1 29 Jun 14:49:04 14:51:04 12° 87° (E) 14:53:03 437.325
O/OREOS (USA 219) 29 Jun 14:54:01 14:55:33 12° 263° (W) 14:57:04 437.305
TISAT 1 29 Jun 15:02:15 15:06:29 78° 104° (ESE) 15:10:41 437.305
YUBILEINY 29 Jun 15:16:59 15:25:05 42° 291° (WNW) 15:33:19 435.215
SPROUT 29 Jun 15:22:12 15:25:24 21° 297° (WNW) 15:28:35 437.525
UKube-1 29 Jun 15:23:00 15:25:43 17° 300° (WNW) 15:28:25 .
SO-50 29 Jun 15:24:25 15:25:27 11° 106° (ESE) 15:26:28 436.795
Oscar 19 29 Jun 15:25:26 15:29:27 23° 268° (W) 15:33:29 437.125/150
Cosmos 2491 29 Jun 15:31:52 15:34:55 12° 291° (WNW) 15:37:58 435.465 / 435.565
Cosmos 2504 29 Jun 15:45:00 15:53:13 73° 282° (WNW) 16:02:02 435.465 / 435.565
ITAMSAT 1 29 Jun 15:48:27 15:53:40 75° 256° (WSW) 15:58:56 435.822/435.867
AIST 2 29 Jun 15:49:33 15:51:41 14° 250° (WSW) 15:53:48 435.215
Gurwin Techsat 1B 29 Jun 15:49:48 15:54:28 31° 265° (W) 15:59:10 435.225
SWISSCUBE 29 Jun 15:57:48 16:02:34 61° 102° (ESE) 16:07:18 437.505
ISS 29 Jun 16:18:28 16:20:58 20° 221° (SW) 16:23:28 145.825
BEESAT 29 Jun 16:22:57 16:27:48 87° 283° (WNW) 16:32:35 436.000
ITUPSAT 1 29 Jun 16:24:43 16:29:34 86° 286° (WNW) 16:34:22 437.325
AO-7 29 Jun 16:32:58 16:41:19 77° 252° (WSW) 16:49:45 29.400- 29.500
TISAT 1 29 Jun 16:39:37 16:41:33 13° 301° (WNW) 16:43:30 437.305
RS-15 29 Jun 16:46:27 16:57:06 35° 349° (NNW) 17:08:08 29.354- 29.394
MOZHAYETS 4 29 Jun 16:52:55 16:56:49 26° 93° (E) 17:00:40
AIST 1 29 Jun 16:53:03 16:55:11 14° 83° (E) 16:57:18
KKS-1 29 Jun 16:54:50 16:58:39 27° 95° (E) 17:02:26 437.445
SO-50 29 Jun 17:00:13 17:05:05 71° 124° (SE) 17:09:57 436.795
HORYU 2 29 Jun 17:20:46 17:25:08 60° 72° (ENE) 17:29:32 437.375
NOAA 15 29 Jun 17:23:34 17:27:15 20° 58° (ENE) 17:30:56 137.62
STARS 29 Jun 17:23:58 17:27:46 28° 95° (E) 17:31:34 437.465
GONETS M04 29 Jun 17:27:13 17:30:56 13° 70° (ENE) 17:34:38
ITAMSAT 1 29 Jun 17:33:04 17:34:02 10° 275° (W) 17:35:02 435.822/435.867
SWISSCUBE 29 Jun 17:36:31 17:39:56 20° 300° (WNW) 17:43:20 437.505
Cosmos 2504 29 Jun 17:42:52 17:48:28 19° 307° (NW) 17:54:16 435.465 / 435.565
LilacSat-2 29 Jun 17:59:07 18:01:34 17° 63° (ENE) 18:04:02 437.200
BEESAT 29 Jun 18:02:32 18:04:51 14° 304° (NW) 18:07:10 436.000
Cubesat XI-IV 29 Jun 18:03:41 18:08:14 30° 63° (ENE) 18:12:51 437.490
ITUPSAT 1 29 Jun 18:04:22 18:06:39 13° 304° (NW) 18:08:58 437.325
NOAA 18 29 Jun 18:06:59 18:11:55 36° 64° (ENE) 18:16:53 137.9125
BRITE-PL 29 Jun 18:08:06 18:12:34 35° 69° (ENE) 18:16:44 437.365/2234.400
CUBESAT XI-V 29 Jun 18:23:30 18:27:27 27° 94° (E) 18:31:20 437.345
Cosmos 2499 29 Jun 18:27:33 18:33:48 24° 77° (ENE) 18:40:15 435.465 / 435.565
AIST 1 29 Jun 18:27:58 18:32:14 62° 282° (WNW) 18:36:31
MOZHAYETS 4 29 Jun 18:29:46 18:34:06 39° 291° (WNW) 18:38:23
AO-7 29 Jun 18:30:19 18:35:28 17° 273° (W) 18:40:39 29.400- 29.500
KKS-1 29 Jun 18:31:13 18:35:16 35° 293° (WNW) 18:39:17 437.445
GOMX 1 29 Jun 18:36:20 18:40:14 30° 68° (ENE) 18:43:58 467.674
CUTE-I 29 Jun 18:36:52 18:42:03 54° 69° (ENE) 18:47:18 437.470
SO-50 29 Jun 18:41:59 18:46:03 25° 325° (NW) 18:50:05 436.795
HO-68 29 Jun 18:43:30 18:48:01 18° 48° (NE) 18:52:32 435.675
CUSAT 1 29 Jun 18:53:06 18:56:41 36° 70° (ENE) 18:59:34 437.405
HORYU 2 29 Jun 18:59:22 19:02:06 16° 270° (W) 19:04:51 437.375
STARS 29 Jun 19:00:11 19:04:10 33° 293° (WNW) 19:08:07 437.465
NOAA 15 29 Jun 19:01:12 19:06:29 73° 257° (WSW) 19:11:48 137.62
RS-15 29 Jun 19:02:27 19:13:46 41° 23° (NNE) 19:25:12 29.354- 29.394
CANX-2 29 Jun 19:16:35 19:18:14 12° 58° (ENE) 19:19:53 2200.000
GONETS M04 29 Jun 19:17:21 19:25:54 65° 93° (E) 19:34:28
DANDE 29 Jun 19:26:12 19:31:06 39° 68° (ENE) 19:34:48 436.750
DOVE 4 29 Jun 19:30:16 19:34:21 46° 71° (ENE) 19:38:20 437.250
LilacSat-2 29 Jun 19:31:55 19:35:33 45° 261° (W) 19:39:14 437.200
CUTE 1.7 + AOD 2 29 Jun 19:35:14 19:37:50 16° 61° (ENE) 19:40:28 437.475
SEEDS 29 Jun 19:37:50 19:39:41 13° 59° (ENE) 19:41:33 437.485
Cubesat XI-IV 29 Jun 19:43:01 19:48:08 45° 261° (W) 19:53:18 437.490
BRITE-PL 29 Jun 19:46:47 19:51:05 29° 264° (W) 19:55:09 437.365/2234.400
NOAA 18 29 Jun 19:47:28 19:52:32 38° 263° (W) 19:57:39 137.9125
CUBESAT XI-V 29 Jun 20:00:39 20:04:55 37° 292° (WNW) 20:09:08 437.345
CUBEBUG 2 29 Jun 20:08:05 20:09:59 13° 58° (ENE) 20:11:53 437.445
AAUSAT CUBESAT 2 29 Jun 20:12:33 20:15:09 16° 62° (ENE) 20:17:45 437.432
STRAND 1 29 Jun 20:13:05 20:17:24 26° 93° (E) 20:21:39 437.568
GOMX 1 29 Jun 20:14:18 20:18:19 30° 264° (W) 20:22:09 467.674
CINEMA 3 29 Jun 20:16:58 20:20:52 42° 70° (ENE) 20:24:50 145.822/145.860
Cosmos 2499 29 Jun 20:17:20 20:25:46 86° 279° (W) 20:34:43 435.465 / 435.565
CUTE-I 29 Jun 20:18:10 20:22:26 24° 268° (W) 20:26:43 437.470
SO-50 29 Jun 20:27:01 20:28:13 11° 348° (NNW) 20:29:25 436.795
HO-68 29 Jun 20:27:27 20:34:33 72° 69° (ENE) 20:41:44 435.675
M-CUBED/EXP-1 PRIME 29 Jun 20:27:39 20:29:46 16° 58° (ENE) 20:31:56 437.505
ZACube-1 29 Jun 20:30:10 20:30:54 10° 56° (NE) 20:31:38 437.345
Oscar 11 29 Jun 20:36:09 20:38:14 13° 59° (ENE) 20:40:17 145.826/435.025
CUSAT 1 29 Jun 20:36:45 20:38:06 12° 278° (W) 20:39:22 437.405
FUNcube-1 29 Jun 20:45:22 20:47:35 14° 59° (ENE) 20:49:49 145.935
COMPASS 1 29 Jun 20:46:16 20:50:13 40° 70° (ENE) 20:54:12 437.405
NOAA 15 29 Jun 20:46:39 20:47:11 10° 275° (W) 20:47:43 137.62
CANX-2 29 Jun 20:49:07 20:53:25 88° 259° (W) 20:57:46 2200.000
UWE-3 29 Jun 20:51:03 20:54:24 23° 64° (ENE) 20:57:49 435.000/436.395/437.385
AO-85 29 Jun 20:55:00 20:56:33 11° 106° (ESE) 20:58:06 145.980
CUTE 1.7 + AOD 2 29 Jun 21:08:58 21:13:12 63° 258° (WSW) 21:17:30 437.475
DOVE 4 29 Jun 21:09:24 21:12:20 18° 268° (W) 21:15:13 437.250
DANDE 29 Jun 21:09:48 21:13:26 20° 278° (W) 21:16:23 436.750
SEEDS 29 Jun 21:10:31 21:14:47 82° 259° (W) 21:19:05 437.485
GONETS M04 29 Jun 21:15:44 21:23:21 33° 295° (WNW) 21:31:02
RS-15 29 Jun 21:15:51 21:28:15 84° 52° (NE) 21:40:36 29.354- 29.394
AUBIESAT-1 29 Jun 21:20:16 21:23:29 53° 67° (ENE) 21:26:48 437.475
HUMSAT D 29 Jun 21:31:26 21:32:38 11° 57° (ENE) 21:33:50 437.325/437.525
CUBEBUG 2 29 Jun 21:41:47 21:45:58 79° 257° (WSW) 21:50:18 437.445
AAUSAT CUBESAT 2 29 Jun 21:46:03 21:50:11 59° 259° (W) 21:54:22 437.432
DELFI C3 29 Jun 21:47:24 21:50:51 28° 67° (ENE) 21:54:20 145.870
STRAND 1 29 Jun 21:51:51 21:56:47 47° 292° (WNW) 22:01:41 437.568
CINEMA 3 29 Jun 21:55:15 21:58:15 19° 268° (W) 22:01:17 145.822/145.860
M-CUBED/EXP-1 PRIME 29 Jun 22:01:08 22:04:09 34° 256° (WSW) 22:07:13 437.505
ZACube-1 29 Jun 22:02:10 22:06:23 80° 76° (ENE) 22:10:45 437.345
Oscar 11 29 Jun 22:09:24 22:13:44 81° 255° (WSW) 22:18:08 145.826/435.025
SO-50 29 Jun 22:09:28 22:10:56 11° 14° (NNE) 22:12:23 436.795
Cosmos 2499 29 Jun 22:13:52 22:20:21 23° 303° (WNW) 22:27:04 435.465 / 435.565
HO-68 29 Jun 22:17:11 22:22:54 25° 268° (W) 22:28:41 435.675
FUNcube-1 29 Jun 22:19:01 22:23:14 74° 257° (WSW) 22:27:36 145.935
COMPASS 1 29 Jun 22:22:43 22:25:57 21° 268° (W) 22:29:12 437.405
UWE-3 29 Jun 22:26:43 22:30:40 39° 263° (W) 22:34:43 435.000/436.395/437.385
PRISM 29 Jun 22:27:48 22:31:56 85° 105° (ESE) 22:36:00 437.425
AO-85 29 Jun 22:30:50 22:36:13 67° 123° (ESE) 22:41:23 145.980
ANTELSAT 29 Jun 22:46:24 22:48:20 12° 87° (E) 22:50:16 437.575/2403.000
AUBIESAT-1 29 Jun 22:57:51 22:58:23 10° 265° (W) 22:58:55 437.475
HUMSAT D 29 Jun 23:03:20 23:07:32 87° 72° (ENE) 23:11:49 437.325/437.525
UKube-1 29 Jun 23:11:19 23:12:03 10° 55° (NE) 23:12:46 .
AISAT 29 Jun 23:16:14 23:19:15 18° 61° (ENE) 23:22:16 437.250
ESTCUBE 1 29 Jun 23:16:56 23:20:44 27° 65° (ENE) 23:24:32 437.505/2401.250
DELFI C3 29 Jun 23:22:10 23:25:40 28° 265° (W) 23:29:12 145.870
YUBILEINY 29 Jun 23:25:49 23:33:26 31° 63° (ENE) 23:41:01 435.215
RS-15 29 Jun 23:29:14 23:39:33 34° 256° (WSW) 23:49:50 29.354- 29.394
DX 1 29 Jun 23:31:10 23:34:16 20° 62° (ENE) 23:37:23 434.975-435.025
TIGRISAT 29 Jun 23:35:48 23:40:04 35° 97° (E) 23:44:21 435.000
50 SAT 29 Jun 23:40:00 23:43:07 26° 67° (ENE) 23:46:15 437.505
UNISAT 6 29 Jun 23:41:20 23:45:45 41° 98° (E) 23:50:11 437.425
ZACube-1 29 Jun 23:42:05 23:43:19 11° 274° (W) 23:44:33 437.345
Cosmos 2504 29 Jun 23:42:15 23:46:47 15° 49° (NE) 23:51:15 435.465 / 435.565
